Regional Weather Roundup
Issued by NWS

Home | Current Version | Previous Version | Text Only | Print | Product List | Glossary Off
Versions: 1 2 3 4 5 6 7 8 9 10 11 12 13 14 15 16 17 18 19 20 21 22 23 24 25 26 27 28 29 30 31 32 33 34 35 36 37 38 39 40 41 42 43 44 45 46 47 48 49 50

000
ASUS43 KOAX 300610
RWRNE

WEATHER ROUNDUP FOR NEBRASKA
NATIONAL WEATHER SERVICE OMAHA NE
100 AM CDT FRI SEP 30 2016

NOTES: SATELLITE DATA IS BEING USED TO AUGMENT CLOUD COVER ABOVE
       12000 FEET.
       "FAIR" INDICATES FEW OR NO CLOUDS BELOW 12,000 FEET WITH NO
       SIGNIFICANT WEATHER AND/OR OBSTRUCTIONS TO VISIBILITY.

  * THESE STATIONS DO NOT REPORT WEATHER SUCH AS RAIN...SNOW OR FOG.

NEZ001>004-019>022-054>056-300700-
NEBRASKA PANHANDLE

CITY           SKY/WX    TMP DP  RH WIND       PRES   REMARKS
SCOTTSBLUFF    PTCLDY    56  41  57 SE10      30.24S
6HR MIN TEMP:  56; 6HR MAX TEMP:  75;

ALLIANCE       CLOUDY    54  41  61 S15       30.25S
6HR MIN TEMP:  54; 6HR MAX TEMP:  71;

CHADRON        CLEAR     62  40  44 S14G32    30.18S
6HR MIN TEMP:  62; 6HR MAX TEMP:  77;

KIMBALL        CLOUDY    56  44  61 SE15      30.25F
SIDNEY         CLOUDY    54  40  59 SE7       30.27S
6HR MIN TEMP:  54; 6HR MAX TEMP:  73;

$$

NEZ057>060-069>072-079>082-300700-
SOUTHWEST NEBRASKA

CITY           SKY/WX    TMP DP  RH WIND       PRES   REMARKS
NORTH PLATTE   CLEAR     45  40  82 E9        30.31S
6HR MIN TEMP:  45; 6HR MAX TEMP:  67;

IMPERIAL       CLEAR     52  42  69 SE12      30.29F
6HR MIN TEMP:  51; 6HR MAX TEMP:  69;

LEXINGTON      CLEAR     46  41  82 CALM      30.33S
MCCOOK         CLEAR     51  44  77 SE7       30.31F
6HR MIN TEMP:  50; 6HR MAX TEMP:  66;

OGALLALA       CLEAR     54  42  63 SE7       30.29S
$$

NEZ005>010-023>029-035>040-094-300700-
NORTH CENTRAL NEBRASKA

CITY           SKY/WX    TMP DP  RH WIND       PRES   REMARKS
AINSWORTH      CLEAR     51  45  79 S10       30.30F
BROKEN BOW     CLEAR     38  37  97 CALM      30.32F
6HR MIN TEMP:  38; 6HR MAX TEMP:  64;

O`NEILL        CLEAR     49  44  82 SE6       30.34S
ORD            LGT RAIN  41  38  89 CALM      30.33S
6HR MIN TEMP:  41; 6HR MAX TEMP:  65; 6HR PCP: TRACE;

THEDFORD       CLEAR     49  41  74 SE7       30.30F
$$

NEZ041-046>049-061>064-073>077-083>087-300700-
SOUTH CENTRAL NEBRASKA

CITY           SKY/WX    TMP DP  RH WIND       PRES   REMARKS
GRAND ISLAND   CLEAR     49  44  83 SE6       30.34F
6HR MIN TEMP:  49; 6HR MAX TEMP:  64;

AURORA         CLEAR     47  45  91 CALM      30.34S
HASTINGS       CLEAR     52  44  74 S3        30.35S
6HR MIN TEMP:  52; 6HR MAX TEMP:  65;

HEBRON         CLEAR     45  44  95 CALM      30.34S
HOLDREGE       CLEAR     45  41  85 CALM      30.33S
KEARNEY *      CLEAR     45  37  76 E3        30.34R
YORK           CLEAR     48  45  87 CALM      30.34S
$$

NEZ011>018-030>034-042>045-300700-
NORTHEAST NEBRASKA

CITY           SKY/WX    TMP DP  RH WIND       PRES   REMARKS
NORFOLK        CLEAR     48  44  86 CALM      30.34F
6HR MIN TEMP:  45; 6HR MAX TEMP:  64;

ALBION         CLEAR     44  42  94 CALM      30.35S
BLAIR          CLEAR     53  46  79 N6        30.33F
FREMONT        CLEAR     47  46  94 CALM      30.34F
TEKAMAH        CLEAR     46  43  89 N6        30.34F
6HR MIN TEMP:  45; 6HR MAX TEMP:  66;

WAYNE          FOG       41  39  95 CALM      30.36S VSB 1
$$

NEZ050>053-065>068-078-088>093-300700-
SOUTHEAST NEBRASKA

CITY           SKY/WX    TMP DP  RH WIND       PRES   REMARKS
LINCOLN        CLEAR     47  45  93 N5        30.35S
6HR MIN TEMP:  47; 6HR MAX TEMP:  65;

OMAHA EPPLEY   CLEAR     49  45  86 NW8       30.33F
6HR MIN TEMP:  49; 6HR MAX TEMP:  68;

BEATRICE       CLEAR     46  45  96 CALM      30.32F
FALLS CITY     CLEAR     52  47  83 NW3       30.30F
6HR MIN TEMP:  52; 6HR MAX TEMP:  66;

NEBRASKA CITY  CLEAR     52  44  73 N3        30.32F
PLATTSMOUTH    CLEAR     55  42  62 NE3       30.33S
$$

NEZ044-045-051>053-067-300700-
OMAHA AREA

CITY           SKY/WX    TMP DP  RH WIND       PRES   REMARKS
OMAHA EPPLEY   CLEAR     49  45  86 NW8       30.33F
6HR MIN TEMP:  49; 6HR MAX TEMP:  68;

BLAIR          CLEAR     53  46  79 N6        30.33F
FREMONT        CLEAR     47  46  94 CALM      30.34F
MILLARD        CLEAR     51  48  92 CALM      30.33F
OFFUTT AFB     CLEAR     47  47  99 W2        30.32S
PLATTSMOUTH    CLEAR     55  42  62 NE3       30.33S
WAHOO          FAIR      49  46  87 CALM      30.34S
$$




USA.gov is the U.S. government's official web portal to all federal, state and local government web resources and services.